Regional Weather Roundup
Issued by NWS Newport/Morehead, NC

Current Version | Previous Version | Graphics & Text | Print | Product List | Glossary On
Versions: 1 2 3 4 5 6 7 8 9 10 11 12 13 14 15 16 17 18 19 20 21 22 23 24 25 26 27 28 29 30 31 32 33 34 35 36 37 38 39 40 41 42 43 44 45 46 47 48 49 50
481 ASUS42 KMHX 142013 RWRMHX WEATHER ROUNDUP FOR EASTERN NORTH CAROLINA NATIONAL WEATHER SERVICE NEWPORT/MOREHEAD CITY NC 300 PM EST THU DEC 14 2017 NOTE: "FAIR" INDICATES FEW OR NO CLOUDS BELOW 12,000 FEET WITH NO SIGNIFICANT WEATHER AND/OR OBSTRUCTIONS TO VISIBILITY NCZ015>017-031-032-045>047-102-103-142100- NORTH COAST CITY SKY/WX TMP DP RH WIND PRES REMARKS EDENTON SUNNY 57 28 33 NW12 29.86R ELIZABETH CITY SUNNY 56 31 38 NW10 29.86R KITTY HAWK CLEAR 52 28 38 W7 29.84R MANTEO SUNNY 53 29 40 NW8 29.86R $$ NCZ045>047-081-094-103-104-142100- CENTRAL COAST CITY SKY/WX TMP DP RH WIND PRES REMARKS FRISCO SUNNY 53 36 52 VRB6 29.86R $$ NCZ095-097-098-100-101-142100- SOUTHERN COAST CITY SKY/WX TMP DP RH WIND PRES REMARKS BEAUFORT SUNNY 56 36 47 SW8 29.86R CEDAR ISLAND NOT AVBL JACKSONVILLE SUNNY 60 31 33 NW5 29.85S PINEY ISLAND N/A N/A N/A N/A W5 29.86R WILMINGTON SUNNY 62 29 28 W10 29.86S $$ NCZ011>013-027>030-043-044-078>080-089-090>093-098-142100- COASTAL PLAIN CITY SKY/WX TMP DP RH WIND PRES REMARKS AHOSKIE SUNNY 54 28 36 NW3 29.86R CLINTON SUNNY 58 32 36 CALM 29.86S ELIZABETHTOWN NOT AVBL GOLDSBORO SUNNY 60 26 28 W8 29.84R GREENVILLE SUNNY 55 27 33 W3 29.87S HAVELOCK SUNNY 59 32 36 W9 29.86R KENANSVILLE SUNNY 57 28 33 W5 29.85F KINSTON SUNNY 57 27 30 W6 29.86S NEW BERN SUNNY 58 31 35 W5 29.86R RICHLANDS SUNNY 59 30 33 CALM 29.86S ROCKY MOUNT SUNNY 57 26 30 W7 29.85S WASHINGTON SUNNY 57 26 30 CALM 29.85R WHITEVILLE SUNNY 59 31 33 W3 29.85F $$ AMZ130-135-150-152-154-156-158-170-250-252-270-ANZ085-086-088-633-658-670-142100- MARINE OBSERVATIONS STATION/POSITION TIME TEMP WIND PRES WAVE SWELL AIR SEA DIR/SP/G HT/PER HT/PER (UTC) (F) (DEG/KT/KT) (MB) (FT/S) (FT/S) CHESAPEAKE LIGHT NOT AVBL 64 E VA BEACH 1950 49 61 340/ 17/ 21 1011.3 6/ 5 2/ 8 DUCK 1948 52 53 250/ 5/ 7 1010.4 2 E DUCK 2000 55 N/A 2/ 3 OREGON INLET 1936 53 42 290/ 7/ 10 1010.7 13E OREGON INLT 1948 63 N/A 4/ 9 3/ 9 HATTERAS CG 1948 51 51 260/ 5/ 7 1011.0 DIAMOND BUOY 1950 56 74 290/ 16/ 19 1011.5 8/ 9 7/ 9 CAPE LOOKOUT 1900 260/ 11/ 13 1011.2 BEAUFORT LAB 1948 57 50 250/ 3/ 8 1011.1 30 SE NEW RVR IN 1908 56 65 270/ 10/ 14 1011.5 30 SE NEW RVR IN 2000 65 N/A 6/ 9 27 SE WRIGHTSVLE 1908 55 65 250/ 10/ 14 1011.8 5 SE WRIGHTSVLE 1908 56 56 220/ 6/ 10 1011.0 225 S CAPE HAT 1850 68 74 250/ 21/ 27 1013.0 9/ 8 3/16 41 SE CHARLESTON 1950 73 220/ 19/ 23 1012.4 5/ 7 $$

USA.gov is the U.S. government's official web portal to all federal, state and local government web resources and services.